KI0MQ Weather Reports


time (UTC)temp
C
wind
direction
speed
KPH
gust
KPH
rain 1hr
cm
rain 24hr
cm
rain mn
cm
humidity
%
barometer
mb
20260508170503 22 328 0.0 3.2 0.00 0.00 0.00 46 1008.3
20260508170009 22 349 0.0 1.6 0.00 0.00 0.00 40 1008.4
20260508165503 21 347 0.0 1.6 0.00 0.00 0.00 43 1008.3
20260508165004 21 347 0.0 1.6 0.00 0.00 0.00 43 1008.4
20260508164507 21 322 0.0 1.6 0.00 0.00 0.00 42 1008.4
20260508164003 21 326 0.0 1.6 0.00 0.00 0.00 41 1008.4
20260508163503 21 340 0.0 3.2 0.00 0.00 0.00 40 1008.4
20260508163008 21 339 0.0 3.2 0.00 0.00 0.00 41 1008.5
20260508162005 20 207 1.6 4.8 0.00 0.00 0.00 43 1008.4
20260508161508 20 189 1.6 4.8 0.00 0.00 0.00 43 1008.5
20260508161003 20 183 1.6 6.4 0.00 0.00 0.00 45 1008.5
20260508160503 20 196 3.2 9.7 0.00 0.00 0.00 46 1008.4
20260508160009 20 194 3.2 9.7 0.00 0.00 0.00 47 1008.4
20260508155503 19 190 3.2 6.4 0.00 0.00 0.00 47 1008.5
20260508155004 19 191 1.6 6.4 0.00 0.00 0.00 49 1008.5
20260508154508 18 182 1.6 3.2 0.00 0.00 0.00 51 1008.5
20260508154003 18 191 3.2 6.4 0.00 0.00 0.00 49 1008.6
20260508153503 18 192 3.2 6.4 0.00 0.00 0.00 50 1008.6
20260508153008 18 192 3.2 6.4 0.00 0.00 0.00 50 1008.6
20260508152504 17 184 3.2 6.4 0.00 0.00 0.00 51 1008.6
20260508152003 17 182 3.2 6.4 0.00 0.00 0.00 53 1008.7
20260508151508 17 187 1.6 6.4 0.00 0.00 0.00 51 1008.8
20260508151003 17 191 1.6 6.4 0.00 0.00 0.00 56 1008.8
20260508150008 17 184 3.2 6.4 0.00 0.00 0.00 57 1008.9
20260508145505 17 189 3.2 8.0 0.00 0.00 0.00 55 1008.7
20260508145003 16 192 3.2 8.0 0.00 0.00 0.00 57 1008.6
20260508144508 16 192 1.6 4.8 0.00 0.00 0.00 59 1008.7
20260508144005 16 190 1.6 4.8 0.00 0.00 0.00 56 1008.8
20260508143503 16 198 1.6 4.8 0.00 0.00 0.00 57 1008.9
20260508143008 16 207 1.6 4.8 0.00 0.00 0.00 58 1009.0
20260508142504 15 196 1.6 4.8 0.00 0.00 0.00 58 1009.0
20260508142004 15 187 3.2 4.8 0.00 0.00 0.00 59 1009.1
20260508141508 15 183 1.6 4.8 0.00 0.00 0.00 59 1009.1
20260508141003 14 346 0.0 3.2 0.00 0.00 0.00 61 1009.1
20260508140504 14 0 0.0 0.0 0.00 0.00 0.00 66 1009.0
20260508140008 13 0 0.0 0.0 0.00 0.00 0.00 68 1009.1
20260508135503 13 0 0.0 0.0 0.00 0.00 0.00 71 1009.0
20260508135003 12 0 0.0 0.0 0.00 0.00 0.00 72 1009.1
20260508134508 12 0 0.0 0.0 0.00 0.00 0.00 74 1009.1
20260508134003 12 0 0.0 0.0 0.00 0.00 0.00 73 1009.1
20260508133505 12 0 0.0 0.0 0.00 0.00 0.00 75 1009.1
20260508133008 11 0 0.0 0.0 0.00 0.00 0.00 75 1009.2
20260508132503 11 0 0.0 0.0 0.00 0.00 0.00 75 1009.2
20260508132003 11 0 0.0 0.0 0.00 0.00 0.00 74 1009.1
20260508131508 11 0 0.0 0.0 0.00 0.00 0.00 73 1009.2
20260508131004 11 0 0.0 0.0 0.00 0.00 0.00 72 1009.0
20260508130504 11 0 0.0 0.0 0.00 0.00 0.00 72 1008.9
20260508130008 11 0 0.0 0.0 0.00 0.00 0.00 73 1008.8
20260508125503 11 0 0.0 0.0 0.00 0.00 0.00 72 1008.8
20260508125004 11 0 0.0 0.0 0.00 0.00 0.00 72 1008.7
20260508124509 11 0 0.0 0.0 0.00 0.00 0.00 71 1008.5
20260508124004 11 0 0.0 0.0 0.00 0.00 0.00 71 1008.5
20260508123503 11 0 0.0 0.0 0.00 0.00 0.00 70 1008.5
20260508123008 11 0 0.0 0.0 0.00 0.00 0.00 70 1008.5
20260508122503 11 0 0.0 0.0 0.00 0.00 0.00 69 1008.6
20260508122004 11 0 0.0 0.0 0.00 0.00 0.00 69 1008.6
20260508121508 11 0 0.0 0.0 0.00 0.00 0.00 68 1008.6
20260508121003 11 0 0.0 0.0 0.00 0.00 0.00 68 1008.7
20260508120008 11 0 0.0 0.0 0.00 0.00 0.00 66 1008.6
20260508115503 11 0 0.0 0.0 0.00 0.00 0.00 66 1008.6
20260508115005 11 334 0.0 3.2 0.00 0.00 0.00 67 1008.7
20260508114509 11 352 0.0 3.2 0.00 0.00 0.00 66 1008.7
20260508114003 10 17 0.0 3.2 0.00 0.00 0.00 66 1008.8
20260508113008 10 0 0.0 0.0 0.00 0.00 0.00 71 1008.9
20260508112505 10 0 0.0 0.0 0.00 0.00 0.00 71 1008.7
20260508112003 10 0 0.0 0.0 0.00 0.00 0.00 69 1008.5
20260508111003 10 0 0.0 0.0 0.00 0.00 0.00 69 1008.6
20260508110504 10 0 0.0 0.0 0.00 0.00 0.00 69 1008.7
20260508110008 10 0 0.0 0.0 0.00 0.00 0.00 69 1008.7
20260508105503 10 0 0.0 0.0 0.00 0.00 0.00 68 1008.6
20260508103503 10 0 0.0 0.0 0.00 0.00 0.00 65 1008.8
20260508103008 10 0 0.0 0.0 0.00 0.00 0.00 66 1008.7
20260508102503 10 37 0.0 1.6 0.00 0.00 0.00 66 1008.8
20260508102004 10 37 0.0 3.2 0.00 0.00 0.00 65 1008.6
20260508101508 10 37 0.0 3.2 0.00 0.00 0.00 64 1008.7
20260508101004 10 0 0.0 0.0 0.00 0.00 0.00 65 1009.1
20260508100504 10 0 0.0 0.0 0.00 0.00 0.00 65 1009.2
20260508100008 10 37 0.0 1.6 0.00 0.00 0.00 64 1009.3
20260508095505 10 37 0.0 1.6 0.00 0.00 0.00 66 1009.3
20260508095004 10 36 0.0 1.6 0.00 0.00 0.00 66 1009.1
20260508094508 10 36 0.0 1.6 0.00 0.00 0.00 67 1009.1
20260508094003 10 36 0.0 1.6 0.00 0.00 0.00 65 1009.0
20260508093504 10 36 0.0 1.6 0.00 0.00 0.00 65 1009.1
20260508093008 11 0 0.0 0.0 0.00 0.00 0.00 65 1009.1
20260508092504 11 0 0.0 0.0 0.00 0.00 0.00 63 1009.1
20260508092003 11 0 0.0 0.0 0.00 0.00 0.00 61 1009.1
20260508091508 11 36 0.0 1.6 0.00 0.00 0.00 61 1009.1
20260508091003 11 36 0.0 1.6 0.00 0.00 0.00 61 1009.2
20260508090503 12 37 0.0 1.6 0.00 0.00 0.00 61 1009.2
20260508090008 12 37 0.0 1.6 0.00 0.00 0.00 60 1009.0
20260508085504 12 0 0.0 0.0 0.00 0.00 0.00 60 1009.2
20260508085004 12 37 0.0 1.6 0.00 0.00 0.00 60 1009.3
20260508084508 12 37 0.0 1.6 0.00 0.00 0.00 61 1009.1
20260508084003 12 37 0.0 1.6 0.00 0.00 0.00 60 1009.0
20260508082503 12 0 0.0 0.0 0.00 0.00 0.00 58 1009.3
20260508082004 12 0 0.0 0.0 0.00 0.00 0.00 55 1009.3
20260508081507 12 37 0.0 1.6 0.00 0.00 0.00 59 1009.0
20260508080504 12 37 0.0 1.6 0.00 0.00 0.00 61 1009.0
20260508080009 12 37 0.0 1.6 0.00 0.00 0.00 61 1009.4
20260508075503 12 37 0.0 1.6 0.00 0.00 0.00 59 1009.4
20260508074508 12 37 0.0 1.6 0.00 0.00 0.00 60 1009.4
20260508074003 12 0 0.0 0.0 0.00 0.00 0.00 59 1009.6
20260508073008 12 36 0.0 1.6 0.00 0.00 0.00 60 1009.4
20260508072504 12 36 0.0 1.6 0.00 0.00 0.00 60 1009.4
20260508072004 12 36 0.0 1.6 0.00 0.00 0.00 60 1009.3
20260508071508 12 31 0.0 1.6 0.00 0.00 0.00 56 1009.0
20260508071003 12 25 0.0 1.6 0.00 0.00 0.00 58 1008.8
20260508070503 12 0 0.0 0.0 0.00 0.00 0.00 61 1009.1
20260508070009 12 0 0.0 0.0 0.00 0.00 0.00 63 1009.1
20260508065503 12 25 0.0 1.6 0.00 0.00 0.00 61 1009.4
20260508065003 12 25 0.0 1.6 0.00 0.00 0.00 61 1009.4
20260508064004 12 0 0.0 0.0 0.00 0.00 0.00 66 1009.5
20260508063503 11 0 0.0 0.0 0.00 0.00 0.00 64 1009.5
20260508063008 11 0 0.0 0.0 0.00 0.00 0.00 66 1009.6
20260508062504 11 0 0.0 0.0 0.00 0.00 0.00 65 1009.5
20260508062003 11 0 0.0 0.0 0.00 0.00 0.00 67 1009.6
20260508061508 11 0 0.0 0.0 0.00 0.00 0.00 67 1009.7
20260508061003 11 0 0.0 0.0 0.00 0.00 0.00 67 1009.5
20260508060504 11 0 0.0 0.0 0.00 0.00 0.00 67 1009.4
20260508060009 11 0 0.0 0.0 0.00 0.00 0.00 66 1009.3
20260508055503 11 0 0.0 0.0 0.00 0.00 0.00 67 1009.3
20260508054508 11 0 0.0 0.0 0.00 0.00 0.00 68 1009.2
20260508054004 11 0 0.0 0.0 0.00 0.00 0.00 67 1009.2
20260508053503 11 0 0.0 0.0 0.00 0.00 0.00 68 1009.1
20260508052503 11 0 0.0 0.0 0.00 0.00 0.00 67 1009.1
20260508052004 11 0 0.0 0.0 0.00 0.00 0.00 66 1009.1
20260508050504 11 0 0.0 0.0 0.00 0.00 0.00 66 1009.2
20260508050009 11 0 0.0 0.0 0.00 0.00 0.00 65 1009.3
20260508045504 11 0 0.0 0.0 0.00 0.00 0.00 64 1009.3
20260508045004 11 0 0.0 0.0 0.00 0.00 0.00 64 1009.4
20260508044508 11 0 0.0 0.0 0.00 0.00 0.00 64 1009.4
20260508044003 10 0 0.0 0.0 0.00 0.00 0.00 64 1009.5
20260508043008 11 0 0.0 0.0 0.00 0.00 0.00 63 1009.5
20260508042503 11 0 0.0 0.0 0.00 0.00 0.00 63 1009.4
20260508042004 11 0 0.0 0.0 0.00 0.00 0.00 62 1009.3
20260508041508 11 0 0.0 0.0 0.00 0.00 0.00 60 1009.3
20260508041003 11 0 0.0 0.0 0.00 0.00 0.00 60 1009.4
20260508040503 11 0 0.0 0.0 0.00 0.00 0.00 60 1009.5
20260508040008 11 0 0.0 0.0 0.00 0.00 0.00 60 1009.5
20260508035503 11 0 0.0 0.0 0.00 0.00 0.00 60 1009.5
20260508035004 11 0 0.0 0.0 0.00 0.00 0.00 60 1009.4
20260508034507 11 0 0.0 0.0 0.00 0.00 0.00 61 1009.3
20260508033504 11 0 0.0 0.0 0.00 0.00 0.00 56 1009.4
20260508033007 12 0 0.0 0.0 0.00 0.00 0.00 55 1009.3
20260508032504 12 0 0.0 0.0 0.00 0.00 0.00 55 1009.4
20260508032003 12 0 0.0 0.0 0.00 0.00 0.00 55 1009.4
20260508031005 12 0 0.0 0.0 0.00 0.00 0.00 54 1009.4
20260508030503 12 0 0.0 0.0 0.00 0.00 0.00 53 1009.4
20260508030008 13 0 0.0 0.0 0.00 0.00 0.00 53 1009.3
20260508025503 13 0 0.0 0.0 0.00 0.00 0.00 52 1009.3
20260508025003 13 0 0.0 0.0 0.00 0.00 0.00 50 1009.2
20260508024508 13 0 0.0 0.0 0.00 0.00 0.00 50 1009.2
20260508024003 13 0 0.0 0.0 0.00 0.00 0.00 49 1009.2
20260508023503 13 0 0.0 0.0 0.00 0.00 0.00 48 1009.0
20260508022003 15 0 0.0 0.0 0.00 0.00 0.00 46 1009.0
20260508021508 15 0 0.0 0.0 0.00 0.00 0.00 45 1008.9
20260508021003 15 0 0.0 0.0 0.00 0.00 0.00 45 1008.8
20260508020503 15 0 0.0 0.0 0.00 0.00 0.00 44 1008.7
20260508020008 16 0 0.0 0.0 0.00 0.00 0.00 44 1008.6
20260508015503 16 0 0.0 0.0 0.00 0.00 0.00 42 1008.6
20260508015004 16 0 0.0 0.0 0.00 0.00 0.00 40 1008.6
20260508014507 17 0 0.0 0.0 0.00 0.00 0.00 39 1008.6
20260508014004 17 0 0.0 0.0 0.00 0.00 0.00 37 1008.6
20260508013504 18 25 0.0 1.6 0.00 0.00 0.00 37 1008.6
20260508013007 18 25 0.0 1.6 0.00 0.00 0.00 35 1008.6
20260508012504 18 0 0.0 0.0 0.00 0.00 0.00 36 1008.5
20260508012003 18 25 0.0 1.6 0.00 0.00 0.00 34 1008.4
20260508011508 19 26 0.0 1.6 0.00 0.00 0.00 33 1008.4
20260508011003 20 25 0.0 3.2 0.00 0.00 0.00 33 1008.3
20260508010503 20 30 0.0 4.8 0.00 0.00 0.00 32 1008.3
20260508010008 20 4 1.6 4.8 0.00 0.00 0.00 31 1008.2
20260508005503 20 352 1.6 4.8 0.00 0.00 0.00 30 1008.1
20260508005004 21 354 1.6 4.8 0.00 0.00 0.00 30 1008.1
20260508003504 21 8 3.2 9.7 0.00 0.00 0.00 29 1007.9
20260508003008 21 1 3.2 9.7 0.00 0.00 0.00 29 1007.9
20260508002503 21 345 3.2 8.0 0.00 0.00 0.00 28 1007.9
20260508002003 22 352 3.2 9.7 0.00 0.00 0.00 29 1007.9
20260508001508 22 358 3.2 9.7 0.00 0.00 0.00 29 1007.9
20260508001003 22 349 3.2 8.0 0.00 0.00 0.00 29 1007.8
20260508000504 22 343 3.2 9.7 0.00 0.00 0.00 28 1007.8
20260507235504 22 320 1.6 9.7 0.00 0.00 0.00 30 1007.8
20260507235003 22 359 3.2 9.7 0.00 0.00 0.00 30 1007.7
20260507234508 22 353 3.2 11.3 0.00 0.00 0.00 31 1007.8
20260507234004 21 323 4.8 12.9 0.00 0.00 0.00 30 1007.8
20260507233503 22 330 4.8 12.9 0.00 0.00 0.00 29 1007.8
20260507233008 22 346 3.2 12.9 0.00 0.00 0.00 28 1007.8
20260507232503 22 311 3.2 12.9 0.00 0.00 0.00 27 1007.8
20260507231508 22 334 4.8 14.5 0.00 0.00 0.00 29 1007.8
20260507231005 22 324 3.2 14.5 0.00 0.00 0.00 29 1007.8
20260507230503 22 347 1.6 8.0 0.00 0.00 0.00 31 1007.8
20260507225504 22 297 1.6 11.3 0.00 0.00 0.00 29 1007.7
20260507225003 22 314 3.2 11.3 0.00 0.00 0.00 28 1007.7
20260507224004 22 323 3.2 17.7 0.00 0.00 0.00 28 1007.6
20260507223008 22 329 4.8 16.1 0.00 0.00 0.00 31 1007.7
20260507222504 22 320 4.8 16.1 0.00 0.00 0.00 29 1007.9
20260507222004 22 307 3.2 6.4 0.00 0.00 0.00 29 1007.8
20260507221507 22 311 1.6 6.4 0.00 0.00 0.00 31 1007.7
20260507221003 21 321 1.6 11.3 0.00 0.00 0.00 31 1007.8
20260507220008 21 314 3.2 14.5 0.00 0.00 0.00 30 1007.9
20260507215503 22 330 1.6 12.9 0.00 0.00 0.00 31 1007.9
20260507215004 21 306 1.6 11.3 0.00 0.00 0.00 33 1007.8
20260507214507 21 305 3.2 11.3 0.00 0.00 0.00 31 1007.9
20260507214003 22 316 1.6 9.7 0.00 0.00 0.00 31 1007.9
20260507213504 21 332 3.2 14.5 0.00 0.00 0.00 32 1007.9
20260507213007 21 344 3.2 14.5 0.00 0.00 0.00 30 1008.0
20260507212504 22 324 3.2 16.1 0.00 0.00 0.00 31 1008.0
20260507212003 21 303 4.8 16.1 0.00 0.00 0.00 31 1008.1
20260507211508 21 312 4.8 14.5 0.00 0.00 0.00 32 1008.1
20260507211005 21 322 4.8 16.1 0.00 0.00 0.00 30 1008.0
20260507210503 22 333 4.8 16.1 0.00 0.00 0.00 30 1008.1
20260507210008 22 318 3.2 9.7 0.00 0.00 0.00 30 1008.2
20260507205504 22 305 3.2 9.7 0.00 0.00 0.00 31 1008.1
20260507204507 22 235 3.2 8.0 0.00 0.00 0.00 34 1008.2
20260507204004 22 271 3.2 12.9 0.00 0.00 0.00 32 1008.3
20260507203504 22 308 4.8 14.5 0.00 0.00 0.00 32 1008.4
20260507203008 22 328 6.4 16.1 0.00 0.00 0.00 29 1008.4
20260507202504 22 341 4.8 16.1 0.00 0.00 0.00 29 1008.5
20260507202004 22 327 4.8 12.9 0.00 0.00 0.00 29 1008.5
20260507200503 22 270 3.2 20.9 0.00 0.00 0.00 29 1008.5
20260507200008 22 273 3.2 17.7 0.00 0.00 0.00 27 1008.6
20260507195003 22 331 3.2 11.3 0.00 0.00 0.00 31 1008.4
20260507194508 23 316 3.2 16.1 0.00 0.00 0.00 31 1008.5
20260507193503 23 247 1.6 11.3 0.00 0.00 0.00 35 1008.4
20260507193008 23 266 3.2 11.3 0.00 0.00 0.00 35 1008.5
20260507191508 22 290 3.2 12.9 0.00 0.00 0.00 37 1008.6
20260507185503 23 261 1.6 8.0 0.00 0.00 0.00 37 1008.4
20260507185004 22 268 3.2 11.3 0.00 0.00 0.00 39 1008.6
20260507183504 22 223 3.2 9.7 0.00 0.00 0.00 38 1008.7
20260507183008 21 246 3.2 9.7 0.00 0.00 0.00 40 1008.8
20260507182503 21 260 3.2 9.7 0.00 0.00 0.00 39 1008.9
20260507182003 21 254 3.2 9.7 0.00 0.00 0.00 40 1008.9
20260507181508 21 258 3.2 9.7 0.00 0.00 0.00 40 1009.1
20260507180503 21 236 3.2 11.3 0.00 0.00 0.00 38 1009.1
20260507180008 21 251 3.2 12.9 0.00 0.00 0.00 39 1009.1
20260507175503 21 241 3.2 12.9 0.00 0.00 0.00 42 1009.1
20260507175004 21 253 3.2 11.3 0.00 0.00 0.00 43 1009.2
20260507174508 20 257 3.2 9.7 0.00 0.00 0.00 42 1009.3
20260507174003 20 237 3.2 8.0 0.00 0.00 0.00 39 1009.4
20260507173504 20 258 3.2 9.7 0.00 0.00 0.00 40 1009.5
20260507173007 20 258 3.2 9.7 0.00 0.00 0.00 40 1009.6
20260507172504 20 245 3.2 9.7 0.00 0.00 0.00 41 1009.5
20260507172003 20 241 3.2 8.0 0.00 0.00 0.00 40 1009.7
20260507171508 20 233 1.6 6.4 0.00 0.00 0.00 42 1009.7